[[{"header":{"parameterUnit":"m.s-1","parameterCategory":1,"la1":30.2991,"la2":30.254,"lo1":-89.0895,"lo2":-89.0444,"dy":0.0017,"dx":0.0017,"nx":28,"ny":28,"refTime":"2025-03-16T09:00:00:Z","depth":0,"parameterNumber":2,"parameterNumberName":"U-component_of_WINDS"},"data":[0,0,0,0,0,0,0,0,0,0,0,0,0,0,0,0,0,0,0,0,0,0,0,0,0,0,0,0,0,0,0,0,0,0,0,0,0,0,0,0,0,0,0,0,0,0,0,0,0,0,0,0,0,0,0,0,0,0,1.331,1.3311,0,1.3342,1.3343,1.3343,1.3321,1.332,1.3319,1.3319,1.3353,1.3355,1.3356,0,0,0,0,0,0,0,0,0,0,0,0,0,1.3232,1.3234,1.331,1.3311,1.3311,1.3342,1.3343,1.3343,1.3322,1.332,1.3319,1.3318,1.3352,1.3354,1.3356,0,0,0,0,0,0,0,0,0,0,0,0,0,1.3265,1.3234,1.331,1.3304,1.3304,1.3342,1.3343,1.3343,1.3322,1.332,1.3319,1.3318,1.3351,1.3354,1.3357,1.3404,0,0,1.3365,1.3366,0,0,0,0,0,0,0,0,1.3264,1.3268,1.3304,1.3304,1.3304,1.3326,1.3328,1.3364,1.3322,1.3315,1.3319,1.3317,1.3345,1.3348,1.3358,1.3405,1.3407,1.3365,1.3367,1.3368,1.3369,0,0,0,0,0,0,0,1.3261,1.3267,1.3323,1.3305,1.3305,1.33,1.3303,1.3335,1.3338,1.3316,1.3314,1.3318,1.3345,1.3355,1.3358,1.3407,1.3365,1.3368,1.337,1.3371,1.3496,1.3498,0,0,0,0,0,0,1.3259,1.3265,1.3322,1.3324,1.328,1.3303,1.3306,1.3321,1.3338,1.3339,1.3319,1.3317,1.3351,1.3355,1.336,1.3416,1.3368,1.3371,1.3372,1.3495,1.3497,1.3499,0,0,0,0,0,0,1.3258,1.3265,1.3321,1.3294,1.3301,1.3306,1.3322,1.3322,1.3332,1.3341,1.3341,1.3329,1.335,1.3356,1.3393,1.3417,1.3372,1.3375,1.3493,1.3495,1.3498,1.3529,0,0,0,0,0,0,1.3256,1.3264,1.3281,1.3295,1.3302,1.3353,1.3324,1.3324,1.3337,1.3334,1.335,1.3351,1.3349,1.3389,1.3396,1.342,1.3377,1.3491,1.3494,1.3497,1.3526,1.3533,1.3538,0,0,0,0,0,1.3253,1.3289,1.3282,1.3289,1.3324,1.3354,1.3359,1.3356,1.3339,1.3357,1.3362,1.335,1.3414,1.3393,1.34,1.3426,1.3489,1.3493,1.3497,1.3524,1.3532,1.3538,0,0,0,0,0,0,1.3278,1.329,1.3283,1.3324,1.3339,1.3351,1.3373,1.3364,1.3384,1.338,1.3376,1.338,1.342,1.3427,1.3404,1.3473,1.3449,1.3454,1.3467,1.3474,1.348,1.3478,1.3379,0,0,0,0,0,1.3289,1.3312,1.3321,1.3357,1.3365,1.3368,1.3381,1.3378,1.3392,1.3398,1.3406,1.3421,1.3445,1.346,1.3482,1.3528,1.3531,1.3549,1.3555,1.356,1.3564,1.3591,1.3599,1.3511,1.3511,1.3511,0,0,1.331,1.332,1.3335,1.3362,1.3373,1.3398,1.3373,1.34,1.3418,1.3402,1.3438,1.3445,1.3462,1.3504,1.3523,1.3511,1.359,1.3565,1.3569,1.3571,1.3595,1.3604,1.3611,1.3514,1.3513,1.3513,0,0,1.3362,1.3372,1.3403,1.3414,1.343,1.3432,1.344,1.3454,1.3458,1.3494,1.3482,1.3505,1.3545,1.3558,1.357,1.3629,1.3619,1.3636,1.3667,1.3693,1.37,1.3706,1.3727,1.3735,1.3641,1.3641,1.3641,0,1.3387,1.3423,1.342,1.3448,1.3461,1.3448,1.348,1.3491,1.3514,1.3524,1.351,1.3561,1.3572,1.3617,1.3632,1.3641,1.3651,1.3634,1.3699,1.3705,1.3711,1.3731,1.3739,1.3643,1.3643,1.3642,1.3642,0,1.3453,1.3479,1.3502,1.3525,1.3541,1.3571,1.3573,1.3589,1.3585,1.3589,1.3627,1.3639,1.3664,1.3675,1.3671,1.372,1.3712,1.3699,1.3675,1.3721,1.374,1.3748,1.3646,1.3645,1.3644,1.3644,0,0,1.3521,1.3542,1.3551,1.3561,1.3579,1.3599,1.363,1.3654,1.3668,1.3685,1.3711,1.3746,1.3734,1.3748,1.3746,1.3768,1.3815,1.3752,1.3752,1.3764,1.3872,1.3881,1.389,1.3809,1.3811,1.3812,1.387,0,1.3574,1.3626,1.3624,1.3673,1.3697,1.3686,1.3713,1.3728,1.3733,1.3755,1.3761,1.3786,1.3768,1.3776,1.3798,1.3805,1.3837,1.3801,1.3834,1.3835,1.383,1.39,1.3911,1.3965,1.3878,1.3879,1.388,0,1.3642,1.3662,1.3713,1.3728,1.3739,1.3762,1.3785,1.3806,1.3823,1.3825,1.3841,1.3836,1.3868,1.3844,1.3888,1.3864,1.3877,1.3883,1.3885,1.3888,1.386,1.3905,1.3982,1.399,1.3892,1.3891,1.389,0,1.3687,1.3726,1.3761,1.3771,1.379,1.3807,1.3816,1.3832,1.3847,1.3867,1.3877,1.3901,1.3914,1.3933,1.3935,1.3917,1.3981,1.3956,1.3984,1.3984,1.3997,1.3996,1.4078,1.4007,1.4007,1.4006,1.4006,0,1.3746,1.3778,1.3782,1.3804,1.384,1.3839,1.3875,1.3882,1.3896,1.3921,1.3913,1.3936,1.3937,1.3961,1.3963,1.4,1.4006,1.401,1.401,1.401,1.401,1.4019,1.4015,1.4009,1.4008,1.4008,1.4007,0,1.3801,1.3805,1.3843,1.3859,1.3864,1.3889,1.3903,1.3925,1.393,1.3961,1.3968,1.3976,1.4004,1.4008,1.4041,1.4043,1.4087,1.4084,1.4081,1.4081,1.4109,1.4106,1.4199,1.4211,1.4132,1.4133,1.4133,0,1.3838,1.3862,1.3881,1.3896,1.3906,1.3931,1.3947,1.3948,1.3964,1.3987,1.4006,1.4033,1.4055,1.4101,1.411,1.4136,1.4132,1.4163,1.4136,1.4136,1.4133,1.4132,1.4135,1.4168,1.4169,1.417,1.417,0,1.3904,1.3905,1.3928,1.3951,1.397,1.3989,1.4007,1.402,1.4023,1.4043,1.4071,1.4088,1.4123,1.415,1.4176,1.4186,1.4179,1.4179,1.4187,1.4187,1.4185,1.4187,1.4096,1.4177,1.4176,1.4175,1.4175,1.4175,1.3952,1.3973,1.399,1.4015,1.4029,1.4046,1.4068,1.4076,1.4099,1.4127,1.4126,1.4158,1.4176,1.421,1.4223,1.4248,1.4238,1.425,1.4252,1.4255,1.4258,1.4182,1.4253,1.4253,1.4252,1.4252,1.4252,0,1.4017,1.4028,1.4052,1.4077,1.4098,1.4089,1.4109,1.4127,1.4155,1.4172,1.4194,1.4228,1.4255,1.4268,1.4295,1.4313,1.4311,1.432,1.4319,1.4321,1.4265,1.4256,1.4322,1.4322,1.4322,1.4322,1.4322,1.4322,1.4054,1.409,1.4094,1.4137,1.4148,1.4179,1.4191,1.4207,1.4221,1.4259,1.4281,1.4289,1.4305,1.4334,1.4359,1.4362,1.4372,1.4383,1.4385,1.4332,1.4325,1.4318,1.4309,1.4386,1.4386,1.4439,1.444,1.444]},{"header":{"parameterUnit":"m.s-1","parameterCategory":1,"la1":30.2991,"la2":30.254,"lo1":-89.0895,"lo2":-89.0444,"dy":0.0017,"dx":0.0017,"nx":28,"ny":28,"refTime":"2025-03-16T09:00:00:Z","depth":0,"parameterNumber":3,"parameterNumberName":"V-component_of_WINDS"},"data":[0,0,0,0,0,0,0,0,0,0,0,0,0,0,0,0,0,0,0,0,0,0,0,0,0,0,0,0,0,0,0,0,0,0,0,0,0,0,0,0,0,0,0,0,0,0,0,0,0,0,0,0,0,0,0,0,0,0,-3.4147,-3.4149,0,-3.4315,-3.4317,-3.4319,-3.4342,-3.4341,-3.4339,-3.4338,-3.4508,-3.4513,-3.4519,0,0,0,0,0,0,0,0,0,0,0,0,0,-3.3848,-3.3853,-3.4147,-3.4149,-3.4151,-3.4314,-3.4317,-3.4319,-3.4342,-3.434,-3.4339,-3.4337,-3.4506,-3.4513,-3.452,0,0,0,0,0,0,0,0,0,0,0,0,0,-3.3992,-3.3855,-3.4147,-3.4183,-3.4188,-3.4314,-3.4317,-3.432,-3.4343,-3.434,-3.4338,-3.4336,-3.4503,-3.4512,-3.4521,-3.4623,0,0,-3.4548,-3.4552,0,0,0,0,0,0,0,0,-3.3984,-3.4003,-3.4175,-3.4181,-3.4186,-3.4305,-3.4273,-3.4421,-3.4343,-3.4284,-3.4338,-3.4335,-3.4442,-3.4456,-3.4492,-3.4631,-3.4638,-3.4549,-3.4554,-3.4558,-3.4561,0,0,0,0,0,0,0,-3.3974,-3.3996,-3.4213,-3.4178,-3.4185,-3.419,-3.4208,-3.4302,-3.4374,-3.4289,-3.4291,-3.4311,-3.4445,-3.4484,-3.4496,-3.464,-3.4549,-3.4557,-3.4562,-3.4566,-3.4871,-3.4873,0,0,0,0,0,0,-3.3958,-3.3988,-3.4208,-3.4218,-3.4078,-3.4198,-3.4218,-3.4269,-3.4373,-3.4387,-3.4312,-3.4311,-3.4469,-3.4486,-3.4503,-3.4628,-3.4558,-3.4567,-3.4572,-3.4868,-3.4871,-3.4874,0,0,0,0,0,0,-3.3951,-3.3977,-3.4201,-3.4104,-3.4133,-3.4205,-3.4263,-3.4274,-3.4313,-3.4391,-3.4404,-3.4339,-3.4468,-3.449,-3.4593,-3.4635,-3.4571,-3.4579,-3.4865,-3.4869,-3.4873,-3.4881,0,0,0,0,0,0,-3.3942,-3.3975,-3.4014,-3.4105,-3.4138,-3.4289,-3.4266,-3.4279,-3.4329,-3.4328,-3.4419,-3.4432,-3.4468,-3.4579,-3.4602,-3.4646,-3.4586,-3.4861,-3.4867,-3.4872,-3.4877,-3.4885,-3.4891,0,0,0,0,0,-3.3932,-3.4009,-3.4016,-3.4042,-3.4189,-3.4291,-3.431,-3.4351,-3.4332,-3.4372,-3.4422,-3.4429,-3.4627,-3.459,-3.4615,-3.4662,-3.4859,-3.4865,-3.4871,-3.4874,-3.4883,-3.4891,0,0,0,0,0,0,-3.3921,-3.4022,-3.403,-3.4139,-3.4207,-3.4295,-3.4347,-3.4359,-3.4433,-3.443,-3.4476,-3.4497,-3.4597,-3.464,-3.4597,-3.4767,-3.4741,-3.4753,-3.4734,-3.4744,-3.4751,-3.4738,-3.4593,0,0,0,0,0,-3.3931,-3.4006,-3.409,-3.4179,-3.4212,-3.4274,-3.432,-3.4345,-3.4417,-3.4445,-3.4503,-3.4571,-3.4649,-3.4699,-3.4775,-3.4884,-3.4904,-3.4929,-3.4936,-3.4942,-3.4951,-3.5012,-3.5024,-3.4895,-3.4895,-3.4894,0,0,-3.3953,-3.4018,-3.4062,-3.4178,-3.4233,-3.431,-3.4297,-3.4379,-3.4436,-3.4457,-3.4558,-3.4603,-3.4683,-3.4789,-3.4839,-3.4828,-3.4991,-3.495,-3.4953,-3.4959,-3.5019,-3.5031,-3.5042,-3.4899,-3.4898,-3.4897,0,0,-3.4032,-3.4089,-3.4168,-3.4224,-3.4308,-3.4349,-3.4368,-3.4455,-3.4486,-3.4588,-3.4606,-3.4675,-3.4807,-3.4864,-3.491,-3.5011,-3.5021,-3.5035,-3.5071,-3.513,-3.514,-3.5149,-3.5185,-3.5198,-3.5044,-3.5044,-3.5044,0,-3.4049,-3.4165,-3.4208,-3.4289,-3.4339,-3.4363,-3.4444,-3.4496,-3.4601,-3.4635,-3.4622,-3.4789,-3.4845,-3.4965,-3.499,-3.5026,-3.5049,-3.5024,-3.5135,-3.5145,-3.5154,-3.5189,-3.5202,-3.5045,-3.5045,-3.5045,-3.5045,0,-3.4181,-3.4261,-3.4316,-3.4416,-3.4473,-3.4553,-3.4608,-3.4661,-3.4682,-3.4724,-3.4828,-3.4896,-3.4985,-3.5016,-3.5037,-3.514,-3.513,-3.5126,-3.5101,-3.5167,-3.52,-3.5214,-3.5047,-3.5046,-3.5046,-3.5046,0,0,-3.4256,-3.438,-3.4399,-3.4446,-3.4541,-3.4604,-3.4686,-3.4774,-3.4818,-3.489,-3.4959,-3.5072,-3.5069,-3.5121,-3.5149,-3.52,-3.5277,-3.519,-3.5192,-3.5203,-3.5393,-3.5395,-3.541,-3.5284,-3.5287,-3.5289,-3.5386,0,-3.4345,-3.4492,-3.4534,-3.4657,-3.4732,-3.4757,-3.4828,-3.4894,-3.4936,-3.5006,-3.5052,-3.5131,-3.5121,-3.5153,-3.5205,-3.5256,-3.5315,-3.525,-3.5348,-3.5351,-3.5326,-3.5427,-3.5429,-3.5518,-3.5399,-3.5402,-3.5403,0,-3.4469,-3.4543,-3.4674,-3.476,-3.4793,-3.4857,-3.4942,-3.5008,-3.5084,-3.5111,-3.517,-3.5193,-3.528,-3.5251,-3.5371,-3.5325,-3.5369,-3.54,-3.5404,-3.5414,-3.538,-3.5438,-3.5547,-3.556,-3.5424,-3.5423,-3.5421,0,-3.4509,-3.4642,-3.4738,-3.4777,-3.488,-3.4924,-3.4969,-3.5043,-3.5094,-3.5168,-3.5201,-3.5285,-3.533,-3.5394,-3.544,-3.5415,-3.5555,-3.5531,-3.558,-3.5578,-3.5607,-3.5604,-3.5722,-3.5637,-3.5636,-3.5636,-3.5636,0,-3.4604,-3.4683,-3.4758,-3.4817,-3.4906,-3.4954,-3.5041,-3.5087,-3.5153,-3.5221,-3.5248,-3.5311,-3.5368,-3.5439,-3.5475,-3.5569,-3.5589,-3.5613,-3.5622,-3.561,-3.5607,-3.5638,-3.5632,-3.564,-3.5639,-3.5638,-3.5638,0,-3.4663,-3.4717,-3.4823,-3.4912,-3.4937,-3.4999,-3.5075,-3.5133,-3.5177,-3.5263,-3.5286,-3.5354,-3.5439,-3.5492,-3.5599,-3.5624,-3.5726,-3.5733,-3.5701,-3.5704,-3.575,-3.5745,-3.5891,-3.5913,-3.5813,-3.5814,-3.5815,0,-3.4719,-3.4781,-3.4877,-3.4925,-3.4971,-3.5047,-3.51,-3.515,-3.5203,-3.5294,-3.5341,-3.5429,-3.5501,-3.5636,-3.5695,-3.5777,-3.5786,-3.5832,-3.5798,-3.5785,-3.5785,-3.5781,-3.5787,-3.5836,-3.5837,-3.5838,-3.5839,0,-3.4813,-3.4837,-3.4911,-3.4996,-3.5058,-3.5126,-3.5195,-3.5232,-3.5294,-3.5352,-3.544,-3.5496,-3.5607,-3.5693,-3.5781,-3.5827,-3.5843,-3.5849,-3.5865,-3.5853,-3.5831,-3.5842,-3.5715,-3.5845,-3.5844,-3.5844,-3.5843,-3.5843,-3.4872,-3.4928,-3.5005,-3.5087,-3.5144,-3.5208,-3.5267,-3.5318,-3.5392,-3.5487,-3.5512,-3.5603,-3.5679,-3.5799,-3.5847,-3.592,-3.5913,-3.5935,-3.5941,-3.5945,-3.5946,-3.5821,-3.5936,-3.5936,-3.5936,-3.5936,-3.5936,0,-3.4966,-3.5017,-3.5093,-3.5188,-3.5253,-3.5264,-3.534,-3.5393,-3.5474,-3.5543,-3.5614,-3.5715,-3.5799,-3.5865,-3.5951,-3.5997,-3.6006,-3.6017,-3.6014,-3.6024,-3.5948,-3.5925,-3.6008,-3.6008,-3.6008,-3.6008,-3.6008,-3.6008,-3.5023,-3.5118,-3.5151,-3.5275,-3.5326,-3.5416,-3.5459,-3.5518,-3.5573,-3.5685,-3.5755,-3.5798,-3.5866,-3.5958,-3.6035,-3.6053,-3.6083,-3.6092,-3.6111,-3.6038,-3.603,-3.6022,-3.6001,-3.6099,-3.6099,-3.6182,-3.6182,-3.6183]}]]